Location: Newark
(44.3681°N, 100.3364°W)
Time: 04:44:26
(UTC+00:00)

Vanguard 1 - Pass Details

Date: 24 February 2020
Orbit: 649 x 3833 km, 34.2° (Epoch: 04 April)

Event Time Altitude Azimuth Distance (km) Brightness Sun altitude
Rises 20:23:55 0° 278° (W) 6,465 14.5 32.5°
Reaches altitude 10° 20:30:05 10° 266° (W) 4,813 14.1 32.0°
Maximum altitude 20:38:23 21° 224° (SW) 3,051 14.5 31.3°
Drops below altitude 10° 20:44:06 10° 178° (S) 3,154 13.6 30.8°
Sets 20:47:06 0° 161° (SSE) 3,765 13.6 30.5°
